Location: Huntsville
(41.2590°N, 111.7678°W)
Time: 01:46:29
(UTC+00:00)

Vanguard 3 - All Passes

Search period start: 13 June 2021 00:00
Search period end: 23 June 2021 00:00
Orbit: 508 x 3262 km, 33.3° (Epoch: 12 June)

Date Brightness Start Highest point End Pass type
(mag) Time Alt. Az. Time Alt. Az. Time Alt. Az.
13 Jun - 00:03:34 10° WSW 00:11:20 17° SW 00:20:46 10° S daylight
13 Jun - 16:14:31 10° SSW 16:18:25 26° SSE 16:24:03 10° E daylight
13 Jun - 18:23:52 10° WSW 18:29:35 48° S 18:39:33 10° ESE daylight
13 Jun - 20:34:28 10° W 20:42:09 41° SSW 20:55:04 10° SE daylight
13 Jun - 22:47:12 10° WSW 22:55:47 24° SSW 23:07:34 10° SSE daylight
14 Jun - 15:03:02 10° S 15:05:08 13° SSE 15:07:33 10° ESE daylight
14 Jun - 17:10:59 10° SW 17:15:37 39° SSE 17:23:06 10° ESE daylight
14 Jun - 19:21:03 10° WSW 19:27:26 45° S 19:38:29 10° ESE daylight
14 Jun - 21:32:29 10° WSW 21:40:27 30° SSW 21:52:37 10° SSE daylight
14 Jun - 23:49:24 10° SW 23:54:15 12° SW 23:59:47 10° SSW daylight
15 Jun - 15:58:25 10° SW 16:02:03 27° SSE 16:07:08 10° ESE daylight
15 Jun - 18:07:55 10° WSW 18:13:10 44° S 18:22:00 10° ESE daylight
15 Jun - 20:18:35 10° WSW 20:25:29 35° SSW 20:36:47 10° SE daylight
15 Jun - 22:31:51 10° WSW 22:38:50 19° SSW 22:48:05 10° S daylight
16 Jun - 14:46:32 10° S 14:48:44 14° SSE 14:51:12 10° ESE daylight
16 Jun - 16:55:01 10° WSW 16:59:17 38° S 17:05:56 10° ESE daylight
16 Jun - 19:05:11 10° WSW 19:10:57 39° S 19:20:37 10° SE daylight
16 Jun - 21:16:50 10° WSW 21:23:42 24° SSW 21:33:47 10° SSE daylight
17 Jun - 15:42:19 10° SW 15:45:44 27° SSE 15:50:19 10° ESE daylight
17 Jun - 17:52:03 10° WSW 17:56:49 40° S 18:04:33 10° ESE daylight
17 Jun - 20:02:50 10° WSW 20:08:55 29° SSW 20:18:29 10° SE daylight
17 Jun - 22:17:12 10° SW 22:22:02 14° SSW 22:27:56 10° S daylight
18 Jun - 14:30:04 10° SSW 14:32:22 15° SSE 14:34:57 10° ESE daylight
18 Jun - 16:39:04 10° WSW 16:43:01 35° S 16:48:51 10° ESE daylight
18 Jun - 18:49:22 10° WSW 18:54:32 33° S 19:02:48 10° SE daylight
18 Jun - 21:01:29 10° WSW 21:07:04 19° SSW 21:14:45 10° SSE daylight
19 Jun - 15:26:13 10° SW 15:29:29 26° SSE 15:33:38 10° ESE daylight
19 Jun - 17:36:12 10° WSW 17:40:30 35° S 17:47:11 10° ESE daylight
19 Jun - 19:47:14 10° WSW 19:52:27 23° SSW 20:00:08 10° SSE daylight
20 Jun - 14:13:36 10° SSW 14:16:05 17° SSE 14:18:45 10° ESE daylight
20 Jun - 16:23:08 10° WSW 16:26:47 32° S 16:31:53 10° ESE daylight
20 Jun - 18:33:39 10° WSW 18:38:11 27° SSW 18:45:01 10° SE daylight
20 Jun - 20:46:45 10° SW 20:50:32 14° SSW 20:55:12 10° S daylight
21 Jun - 13:02:26 10° SSE 13:02:36 10° SSE 13:02:46 10° SSE daylight
21 Jun - 15:10:07 10° SW 15:13:17 26° S 15:17:03 10° ESE daylight
21 Jun - 17:20:23 10° WSW 17:24:16 29° S 17:29:53 10° SE daylight
21 Jun - 19:31:55 10° WSW 19:36:03 18° SSW 19:41:37 10° SSE daylight
22 Jun - 13:57:07 10° SSW 13:59:50 19° SSE 14:02:37 10° ESE daylight
22 Jun - 16:07:12 10° WSW 16:10:36 29° S 16:15:02 10° ESE daylight
22 Jun - 18:18:04 10° WSW 18:21:54 21° SSW 18:27:13 10° SSE daylight
